Time,TemperatureF,DewpointF,PressureIn,WindDirection,WindDirectionDegrees,WindSpeedMPH,WindSpeedGustMPH,Humidity,HourlyPrecipIn,Conditions,Clouds,dailyrainin,SoftwareType,DateUTC
2013-08-18 00:00:00,63.5,58.9,30.07,North,0,0.0,0.0,85,0.00,,,0.00,VWS V14.01,2013-08-18 05:00:00,
2013-08-18 00:30:00,63.2,58.6,30.07,North,0,0.0,0.0,85,0.00,,,0.00,VWS V14.01,2013-08-18 05:30:00,
2013-08-18 01:00:00,62.6,58.0,30.06,North,0,0.0,0.0,85,0.00,,,0.00,VWS V14.01,2013-08-18 06:00:00,
2013-08-18 01:30:00,61.8,57.6,30.06,North,0,0.0,0.0,86,0.00,,,0.00,VWS V14.01,2013-08-18 06:30:00,
2013-08-18 02:00:00,61.4,57.5,30.06,North,0,0.0,0.0,87,0.00,,,0.00,VWS V14.01,2013-08-18 07:00:00,
2013-08-18 02:30:00,61.2,57.6,30.05,North,0,0.0,0.0,88,0.00,,,0.00,VWS V14.01,2013-08-18 07:30:00,
2013-08-18 03:00:00,61.3,57.4,30.05,North,0,0.0,0.0,87,0.00,,,0.00,VWS V14.01,2013-08-18 08:00:00,
2013-08-18 03:30:00,60.7,57.1,30.05,North,0,0.0,0.0,88,0.00,,,0.00,VWS V14.01,2013-08-18 08:30:00,
2013-08-18 04:00:00,60.2,56.6,30.05,North,0,0.0,0.0,88,0.00,,,0.00,VWS V14.01,2013-08-18 09:00:00,
2013-08-18 04:30:00,59.9,56.7,30.05,North,0,0.0,0.0,89,0.00,,,0.00,VWS V14.01,2013-08-18 09:30:00,
2013-08-18 05:00:00,59.5,56.6,30.05,North,0,0.0,0.0,90,0.00,,,0.00,VWS V14.01,2013-08-18 10:00:00,
2013-08-18 05:30:00,59.0,56.4,30.07,North,0,0.0,0.0,91,0.00,,,0.00,VWS V14.01,2013-08-18 10:30:00,
2013-08-18 06:00:00,58.5,55.9,30.07,North,0,0.0,0.0,91,0.00,,,0.00,VWS V14.01,2013-08-18 11:00:00,
2013-08-18 06:30:00,58.3,56.0,30.09,North,0,0.0,0.0,92,0.00,,,0.00,VWS V14.01,2013-08-18 11:30:00,
2013-08-18 07:00:00,58.3,56.0,30.09,North,0,0.0,0.0,92,0.00,,,0.00,VWS V14.01,2013-08-18 12:00:00,
2013-08-18 07:30:00,59.0,56.7,30.09,North,0,0.0,0.0,92,0.00,,,0.00,VWS V14.01,2013-08-18 12:30:00,
2013-08-18 08:00:00,60.1,57.2,30.10,North,0,0.0,1.0,90,0.00,,,0.00,VWS V14.01,2013-08-18 13:00:00,
2013-08-18 08:30:00,61.6,57.7,30.10,North,0,0.0,0.0,87,0.00,,,0.00,VWS V14.01,2013-08-18 13:30:00,
2013-08-18 09:00:00,63.8,58.5,30.11,North,0,0.0,1.0,83,0.00,,,0.00,VWS V14.01,2013-08-18 14:00:00,
2013-08-18 09:30:00,66.2,60.2,30.11,NW,315,0.0,4.0,81,0.00,,,0.00,VWS V14.01,2013-08-18 14:30:00,
2013-08-18 10:00:00,68.8,59.8,30.11,NW,315,0.0,5.0,73,0.00,,,0.00,VWS V14.01,2013-08-18 15:00:00,
2013-08-18 10:30:00,72.1,60.5,30.11,NNW,338,0.0,5.0,67,0.00,,,0.00,VWS V14.01,2013-08-18 15:30:00,
2013-08-18 11:00:00,75.0,61.6,30.10,NW,315,0.0,7.0,63,0.00,,,0.00,VWS V14.01,2013-08-18 16:00:00,
2013-08-18 11:30:00,76.8,60.4,30.09,NW,315,0.0,6.0,57,0.00,,,0.00,VWS V14.01,2013-08-18 16:30:00,
2013-08-18 12:00:00,78.2,60.2,30.09,NW,315,1.0,7.0,54,0.00,,,0.00,VWS V14.01,2013-08-18 17:00:00,
2013-08-18 12:30:00,76.8,60.4,30.09,NW,315,0.0,6.0,57,0.00,,CLR,0.00,VWS V14.01,2013-08-18 17:30:00,
2013-08-18 12:48:00,78.9,61.4,30.08,NNW,330,0.0,1.0,55,0.00,,,0.00,VWS V14.01,2013-08-18 17:48:00,
2013-08-18 12:53:00,78.9,59.8,30.08,North,5,0.0,5.0,52,0.00,,,0.00,VWS V14.01,2013-08-18 17:53:00,
2013-08-18 12:58:00,79.3,61.2,30.08,NNW,342,0.0,5.0,54,0.00,,,0.00,VWS V14.01,2013-08-18 17:58:00,
2013-08-18 13:00:00,79.3,61.2,30.08,North,355,0.0,5.0,54,0.00,,,0.00,VWS V14.01,2013-08-18 18:00:00,
2013-08-18 13:03:00,79.3,61.8,30.08,NNW,327,4.0,4.0,55,0.00,,CLR,0.00,VWS V14.01,2013-08-18 18:03:00,
2013-08-18 13:04:00,79.3,62.3,30.08,NNW,335,0.0,4.0,56,0.00,,CLR,0.00,VWS V14.01,2013-08-18 18:04:00,
2013-08-18 13:08:00,79.1,61.6,30.08,NW,313,0.0,4.0,55,0.00,,CLR,0.00,VWS V14.01,2013-08-18 18:08:00,
2013-08-18 13:09:00,79.3,62.3,30.08,NW,313,0.0,4.0,56,0.00,,CLR,0.00,VWS V14.01,2013-08-18 18:09:00,
2013-08-18 13:13:00,79.3,62.3,30.08,NW,310,0.0,4.0,56,0.00,,CLR,0.00,VWS V14.01,2013-08-18 18:13:00,
2013-08-18 13:14:00,79.3,61.8,30.08,NW,311,0.0,4.0,55,0.00,,CLR,0.00,VWS V14.01,2013-08-18 18:14:00,
2013-08-18 13:18:00,79.3,61.2,30.08,NW,317,0.0,6.0,54,0.00,,CLR,0.00,VWS V14.01,2013-08-18 18:18:00,
2013-08-18 13:19:00,79.3,61.2,30.08,NW,323,0.0,6.0,54,0.00,,CLR,0.00,VWS V14.01,2013-08-18 18:19:00,
2013-08-18 13:23:00,78.9,60.3,30.08,North,11,0.0,6.0,53,0.00,,CLR,0.00,VWS V14.01,2013-08-18 18:23:00,
2013-08-18 13:24:00,78.9,60.9,30.08,North,11,0.0,6.0,54,0.00,,CLR,0.00,VWS V14.01,2013-08-18 18:24:00,
2013-08-18 13:28:00,78.9,60.9,30.08,North,350,0.0,6.0,54,0.00,,CLR,0.00,VWS V14.01,2013-08-18 18:28:00,
2013-08-18 13:29:00,78.9,60.9,30.08,North,349,0.0,6.0,54,0.00,,CLR,0.00,VWS V14.01,2013-08-18 18:29:00,
2013-08-18 13:30:00,78.9,60.9,30.08,North,349,0.0,6.0,54,0.00,,,0.00,VWS V14.01,2013-08-18 18:30:00,
2013-08-18 13:34:00,79.1,61.0,30.08,NNW,345,0.0,1.0,54,0.00,,CLR,0.00,VWS V14.01,2013-08-18 18:34:00,
2013-08-18 13:35:00,79.3,60.7,30.08,NNW,345,0.0,1.0,53,0.00,,CLR,0.00,VWS V14.01,2013-08-18 18:35:00,
2013-08-18 13:39:00,79.7,60.5,30.08,NNE,30,1.0,1.0,52,0.00,,CLR,0.00,VWS V14.01,2013-08-18 18:39:00,
2013-08-18 13:40:00,79.8,61.2,30.08,NNE,30,0.0,1.0,53,0.00,,CLR,0.00,VWS V14.01,2013-08-18 18:40:00,
2013-08-18 13:44:00,79.8,61.2,30.08,East,96,0.0,1.0,53,0.00,,CLR,0.00,VWS V14.01,2013-08-18 18:44:00,
2013-08-18 13:45:00,79.8,60.1,30.07,East,85,0.0,1.0,51,0.00,,CLR,0.00,VWS V14.01,2013-08-18 18:45:00,
2013-08-18 13:49:00,80.2,61.0,30.07,North,355,0.0,3.0,52,0.00,,CLR,0.00,VWS V14.01,2013-08-18 18:49:00,
2013-08-18 13:50:00,80.2,60.5,30.07,NNE,25,0.0,3.0,51,0.00,,CLR,0.00,VWS V14.01,2013-08-18 18:50:00,
2013-08-18 13:51:00,80.4,61.7,30.07,ESE,116,1.0,3.0,53,0.00,,CLR,0.00,VWS V14.01,2013-08-18 18:51:00,
2013-08-18 13:54:00,80.2,61.0,30.07,ESE,103,0.0,4.0,52,0.00,,CLR,0.00,VWS V14.01,2013-08-18 18:54:00,
2013-08-18 13:55:00,80.2,61.0,30.07,ESE,104,0.0,4.0,52,0.00,,CLR,0.00,VWS V14.01,2013-08-18 18:55:00,
2013-08-18 13:56:00,80.2,61.0,30.07,NE,49,0.0,4.0,52,0.00,,CLR,0.00,VWS V14.01,2013-08-18 18:56:00,
2013-08-18 13:59:00,80.2,61.0,30.07,NNW,327,0.0,4.0,52,0.00,,CLR,0.00,VWS V14.01,2013-08-18 18:59:00,
2013-08-18 14:00:00,80.2,61.0,30.06,NW,306,0.0,4.0,52,0.00,,CLR,0.00,VWS V14.01,2013-08-18 19:00:00,
2013-08-18 14:01:00,80.4,62.2,30.06,NW,306,0.0,0.0,54,0.00,,CLR,0.00,VWS V14.01,2013-08-18 19:01:00,
2013-08-18 14:04:00,80.6,60.3,30.06,SE,140,1.0,6.0,50,0.00,,CLR,0.00,VWS V14.01,2013-08-18 19:04:00,
2013-08-18 14:05:00,80.6,60.8,30.06,ESE,114,0.0,6.0,51,0.00,,CLR,0.00,VWS V14.01,2013-08-18 19:05:00,
2013-08-18 14:07:00,80.4,60.6,30.06,ESE,108,0.0,6.0,51,0.00,,CLR,0.00,VWS V14.01,2013-08-18 19:07:00,
2013-08-18 14:10:00,80.2,59.9,30.06,NW,317,1.0,6.0,50,0.00,,CLR,0.00,VWS V14.01,2013-08-18 19:10:00,
2013-08-18 14:12:00,80.6,60.8,30.06,North,5,0.0,7.0,51,0.00,,CLR,0.00,VWS V14.01,2013-08-18 19:12:00,
2013-08-18 14:15:00,80.8,60.4,30.06,NE,49,0.0,7.0,50,0.00,,CLR,0.00,VWS V14.01,2013-08-18 19:15:00,
2013-08-18 14:16:00,80.8,61.0,30.06,NE,49,0.0,7.0,51,0.00,,CLR,0.00,VWS V14.01,2013-08-18 19:16:00,
2013-08-18 14:17:00,81.0,60.6,30.06,NE,36,0.0,7.0,50,0.00,,CLR,0.00,VWS V14.01,2013-08-18 19:17:00,
2013-08-18 14:20:00,81.1,60.7,30.06,SE,142,1.0,7.0,50,0.00,,CLR,0.00,VWS V14.01,2013-08-18 19:20:00,
2013-08-18 14:21:00,81.1,60.7,30.06,SE,146,0.0,7.0,50,0.00,,CLR,0.00,VWS V14.01,2013-08-18 19:21:00,
2013-08-18 14:22:00,81.1,62.4,30.06,SE,146,0.0,7.0,53,0.00,,CLR,0.00,VWS V14.01,2013-08-18 19:22:00,
2013-08-18 14:25:00,81.5,62.7,30.06,East,82,0.0,7.0,53,0.00,,CLR,0.00,VWS V14.01,2013-08-18 19:25:00,
2013-08-18 14:26:00,81.7,61.8,30.06,East,82,0.0,7.0,51,0.00,,CLR,0.00,VWS V14.01,2013-08-18 19:26:00,
2013-08-18 14:27:00,81.9,60.9,30.06,NE,52,0.0,7.0,49,0.00,,CLR,0.00,VWS V14.01,2013-08-18 19:27:00,
2013-08-18 14:30:00,81.9,62.0,30.06,NE,52,0.0,7.0,51,0.00,,CLR,0.00,VWS V14.01,2013-08-18 19:30:00,
2013-08-18 14:31:00,81.9,60.9,30.06,NE,52,0.0,0.0,49,0.00,,CLR,0.00,VWS V14.01,2013-08-18 19:31:00,
2013-08-18 14:33:00,82.1,61.6,30.06,NE,52,0.0,1.0,50,0.00,,CLR,0.00,VWS V14.01,2013-08-18 19:33:00,
2013-08-18 14:36:00,82.1,61.1,30.06,NE,51,0.0,1.0,49,0.00,,CLR,0.00,VWS V14.01,2013-08-18 19:36:00,
2013-08-18 14:38:00,82.1,61.1,30.06,SE,128,0.0,4.0,49,0.00,,CLR,0.00,VWS V14.01,2013-08-18 19:38:00,
2013-08-18 14:41:00,82.1,61.6,30.06,NE,34,0.0,4.0,50,0.00,,CLR,0.00,VWS V14.01,2013-08-18 19:41:00,
2013-08-18 14:43:00,82.1,62.2,30.06,North,350,0.0,4.0,51,0.00,,CLR,0.00,VWS V14.01,2013-08-18 19:43:00,
2013-08-18 14:46:00,81.7,61.8,30.05,NNW,346,0.0,6.0,51,0.00,,CLR,0.00,VWS V14.01,2013-08-18 19:46:00,
2013-08-18 14:48:00,81.5,62.2,30.05,NNW,338,0.0,6.0,52,0.00,,CLR,0.00,VWS V14.01,2013-08-18 19:48:00,
2013-08-18 14:51:00,81.7,62.4,30.05,NW,323,0.0,6.0,52,0.00,,CLR,0.00,VWS V14.01,2013-08-18 19:51:00,
2013-08-18 14:54:00,81.9,62.0,30.05,NNE,28,0.0,6.0,51,0.00,,CLR,0.00,VWS V14.01,2013-08-18 19:54:00,
2013-08-18 14:56:00,81.9,62.6,30.05,NNE,28,0.0,6.0,52,0.00,,CLR,0.00,VWS V14.01,2013-08-18 19:56:00,
2013-08-18 14:57:00,81.9,62.6,30.05,NNE,28,1.0,6.0,52,0.00,,CLR,0.00,VWS V14.01,2013-08-18 19:57:00,
2013-08-18 14:59:00,81.9,61.5,30.05,NNE,29,0.0,6.0,50,0.00,,CLR,0.00,VWS V14.01,2013-08-18 19:59:00,
2013-08-18 15:00:00,81.7,61.3,30.05,NNE,29,0.0,6.0,50,0.00,,,0.00,VWS V14.01,2013-08-18 20:00:00,
2013-08-18 15:01:00,81.7,61.3,30.05,NNE,29,0.0,0.0,50,0.00,,SCT049,0.00,VWS V14.01,2013-08-18 20:01:00,
2013-08-18 15:02:00,81.7,61.3,30.05,NNE,29,0.0,0.0,50,0.00,,SCT049,0.00,VWS V14.01,2013-08-18 20:02:00,
2013-08-18 15:04:00,81.9,62.0,30.05,NNE,29,0.0,0.0,51,0.00,,SCT049,0.00,VWS V14.01,2013-08-18 20:04:00,
2013-08-18 15:06:00,82.1,61.6,30.05,East,82,0.0,2.0,50,0.00,,SCT049,0.00,VWS V14.01,2013-08-18 20:06:00,
2013-08-18 15:07:00,82.1,61.6,30.05,East,82,0.0,2.0,50,0.00,,SCT049,0.00,VWS V14.01,2013-08-18 20:07:00,
2013-08-18 15:09:00,82.1,61.1,30.05,NNE,33,0.0,2.0,49,0.00,,SCT049,0.00,VWS V14.01,2013-08-18 20:09:00,
2013-08-18 15:12:00,82.1,61.6,30.05,North,11,0.0,3.0,50,0.00,,SCT049,0.00,VWS V14.01,2013-08-18 20:12:00,
2013-08-18 15:14:00,82.1,62.2,30.05,WNW,303,1.0,4.0,51,0.00,,SCT049,0.00,VWS V14.01,2013-08-18 20:14:00,
2013-08-18 15:17:00,81.7,61.8,30.04,NW,309,0.0,5.0,51,0.00,,SCT049,0.00,VWS V14.01,2013-08-18 20:17:00,
2013-08-18 15:19:00,81.5,61.7,30.04,NW,311,0.0,5.0,51,0.00,,SCT049,0.00,VWS V14.01,2013-08-18 20:19:00,
2013-08-18 15:22:00,81.5,62.2,30.04,NW,311,0.0,5.0,52,0.00,,SCT049,0.00,VWS V14.01,2013-08-18 20:22:00,
2013-08-18 15:24:00,81.9,63.1,30.04,NW,316,0.0,5.0,53,0.00,,SCT049,0.00,VWS V14.01,2013-08-18 20:24:00,
2013-08-18 15:27:00,82.1,63.3,30.04,North,360,0.0,5.0,53,0.00,,SCT049,0.00,VWS V14.01,2013-08-18 20:27:00,
2013-08-18 15:30:00,81.9,62.6,30.04,North,5,0.0,5.0,52,0.00,,SCT049,0.00,VWS V14.01,2013-08-18 20:30:00,
2013-08-18 15:32:00,81.5,62.2,30.04,North,5,0.0,0.0,52,0.00,,SCT049,0.00,VWS V14.01,2013-08-18 20:32:00,
2013-08-18 15:33:00,81.5,62.2,30.04,North,5,0.0,0.0,52,0.00,,SCT049,0.00,VWS V14.01,2013-08-18 20:33:00,
2013-08-18 15:35:00,81.3,62.0,30.04,North,5,0.0,0.0,52,0.00,,SCT049,0.00,VWS V14.01,2013-08-18 20:35:00,
2013-08-18 15:37:00,81.1,62.9,30.04,North,5,0.0,1.0,54,0.00,,SCT049,0.00,VWS V14.01,2013-08-18 20:37:00,
2013-08-18 15:38:00,81.1,62.9,30.04,North,5,0.0,1.0,54,0.00,,SCT049,0.00,VWS V14.01,2013-08-18 20:38:00,
2013-08-18 15:40:00,81.0,62.3,30.04,North,5,0.0,1.0,53,0.00,,SCT049,0.00,VWS V14.01,2013-08-18 20:40:00,
2013-08-18 15:42:00,80.8,62.1,30.04,North,5,0.0,1.0,53,0.00,,SCT049,0.00,VWS V14.01,2013-08-18 20:42:00,
2013-08-18 15:43:00,80.8,61.5,30.04,North,5,0.0,1.0,52,0.00,,SCT049,0.00,VWS V14.01,2013-08-18 20:43:00,
2013-08-18 15:45:00,80.6,61.4,30.03,North,5,0.0,1.0,52,0.00,,CLR,0.00,VWS V14.01,2013-08-18 20:45:00,
2013-08-18 15:47:00,80.6,61.9,30.03,North,5,0.0,1.0,53,0.00,,CLR,0.00,VWS V14.01,2013-08-18 20:47:00,
2013-08-18 15:48:00,80.4,61.2,30.03,North,5,0.0,1.0,52,0.00,,CLR,0.00,VWS V14.01,2013-08-18 20:48:00,
2013-08-18 15:50:00,80.4,61.2,30.03,North,5,0.0,1.0,52,0.00,,CLR,0.00,VWS V14.01,2013-08-18 20:50:00,
2013-08-18 15:52:00,80.4,62.2,30.03,North,5,0.0,1.0,54,0.00,,CLR,0.00,VWS V14.01,2013-08-18 20:52:00,
2013-08-18 15:53:00,80.4,62.2,30.03,North,5,0.0,1.0,54,0.00,,CLR,0.00,VWS V14.01,2013-08-18 20:53:00,
2013-08-18 15:55:00,80.6,62.4,30.03,North,5,0.0,1.0,54,0.00,,CLR,0.00,VWS V14.01,2013-08-18 20:55:00,
2013-08-18 15:57:00,80.6,61.9,30.03,North,5,0.0,1.0,53,0.00,,CLR,0.00,VWS V14.01,2013-08-18 20:57:00,
2013-08-18 15:58:00,80.6,62.4,30.03,North,5,0.0,1.0,54,0.00,,CLR,0.00,VWS V14.01,2013-08-18 20:58:00,
2013-08-18 15:59:00,80.8,62.6,30.03,North,5,0.0,1.0,54,0.00,,CLR,0.00,VWS V14.01,2013-08-18 20:59:00,
2013-08-18 16:00:00,80.8,62.1,30.03,North,5,0.0,1.0,53,0.00,,SCT044,0.00,VWS V14.01,2013-08-18 21:00:00,
2013-08-18 16:03:00,80.8,62.1,30.03,North,5,0.0,0.0,53,0.00,,SCT044,0.00,VWS V14.01,2013-08-18 21:03:00,
2013-08-18 16:04:00,81.0,62.8,30.03,North,5,0.0,0.0,54,0.00,,SCT044,0.00,VWS V14.01,2013-08-18 21:04:00,
2013-08-18 16:30:00,81.9,60.9,30.03,NNE,32,2.0,5.0,49,0.00,,,0.00,VWS V14.01,2013-08-18 21:30:00,
2013-08-18 17:00:00,80.8,61.0,30.03,NE,54,0.0,4.0,51,0.00,,,0.00,VWS V14.01,2013-08-18 22:00:00,
2013-08-18 17:30:00,81.7,62.9,30.03,NNW,348,0.0,1.0,53,0.00,,,0.00,VWS V14.01,2013-08-18 22:30:00,
2013-08-18 18:00:00,79.7,62.1,30.02,ESE,116,0.0,5.0,55,0.00,,,0.00,VWS V14.01,2013-08-18 23:00:00,
2013-08-18 18:30:00,79.8,62.2,30.02,East,93,0.0,1.0,55,0.00,,,0.00,VWS V14.01,2013-08-18 23:30:00,
2013-08-18 19:00:00,79.7,64.1,30.02,East,93,0.0,0.0,59,0.00,,,0.00,VWS V14.01,2013-08-19 00:00:00,
2013-08-18 19:30:00,77.5,65.3,30.02,East,93,0.0,0.0,66,0.00,,,0.00,VWS V14.01,2013-08-19 00:30:00,
2013-08-18 20:00:00,74.6,65.0,30.03,East,93,0.0,0.0,72,0.00,,,0.00,VWS V14.01,2013-08-19 01:00:00,
2013-08-18 20:30:00,72.9,64.5,30.03,East,93,0.0,0.0,75,0.00,,,0.00,VWS V14.01,2013-08-19 01:30:00,
2013-08-18 21:00:00,71.5,65.0,30.03,East,93,0.0,0.0,80,0.00,,,0.00,VWS V14.01,2013-08-19 02:00:00,
2013-08-18 21:30:00,70.0,64.6,30.05,East,93,0.0,0.0,83,0.00,,,0.00,VWS V14.01,2013-08-19 02:30:00,
2013-08-18 21:51:00,69.0,64.3,30.05,East,93,0.0,0.0,85,0.00,,SCT044,0.00,VWS V14.01,2013-08-19 02:51:00,
2013-08-18 21:56:00,68.8,64.1,30.05,East,93,0.0,0.0,85,0.00,,SCT044,0.00,VWS V14.01,2013-08-19 02:56:00,
2013-08-18 21:57:00,68.8,64.1,30.05,East,93,0.0,0.0,85,0.00,,SCT044,0.00,VWS V14.01,2013-08-19 02:57:00,
2013-08-18 22:00:00,68.8,64.1,30.05,East,93,0.0,0.0,85,0.00,,,0.00,VWS V14.01,2013-08-19 03:00:00,
2013-08-18 22:01:00,68.8,64.1,30.05,East,93,0.0,0.0,85,0.00,,CLR,0.00,VWS V14.01,2013-08-19 03:01:00,
2013-08-18 22:02:00,68.8,64.1,30.05,East,93,0.0,0.0,85,0.00,,CLR,0.00,VWS V14.01,2013-08-19 03:02:00,
2013-08-18 22:06:00,68.7,64.3,30.05,East,93,0.0,0.0,86,0.00,,CLR,0.00,VWS V14.01,2013-08-19 03:06:00,
2013-08-18 22:07:00,68.7,64.3,30.05,East,93,0.0,0.0,86,0.00,,CLR,0.00,VWS V14.01,2013-08-19 03:07:00,
2013-08-18 22:11:00,68.7,64.3,30.05,East,93,0.0,0.0,86,0.00,,CLR,0.00,VWS V14.01,2013-08-19 03:11:00,
2013-08-18 22:12:00,68.7,64.3,30.05,East,93,0.0,0.0,86,0.00,,CLR,0.00,VWS V14.01,2013-08-19 03:12:00,
2013-08-18 22:16:00,68.5,64.2,30.05,East,93,0.0,0.0,86,0.00,,CLR,0.00,VWS V14.01,2013-08-19 03:16:00,
2013-08-18 22:17:00,68.5,64.2,30.05,East,93,0.0,0.0,86,0.00,,CLR,0.00,VWS V14.01,2013-08-19 03:17:00,
2013-08-18 22:22:00,68.5,64.5,30.05,East,93,0.0,0.0,87,0.00,,CLR,0.00,VWS V14.01,2013-08-19 03:22:00,
2013-08-18 22:27:00,68.3,64.3,30.05,East,93,0.0,0.0,87,0.00,,CLR,0.00,VWS V14.01,2013-08-19 03:27:00,
2013-08-18 22:30:00,68.3,64.3,30.05,East,93,0.0,0.0,87,0.00,,,0.00,VWS V14.01,2013-08-19 03:30:00,
2013-08-18 22:32:00,68.3,64.3,30.05,East,93,0.0,0.0,87,0.00,,CLR,0.00,VWS V14.01,2013-08-19 03:32:00,
2013-08-18 22:33:00,68.2,64.2,30.05,East,93,0.0,0.0,87,0.00,,CLR,0.00,VWS V14.01,2013-08-19 03:33:00,
2013-08-18 22:37:00,68.0,64.0,30.05,East,93,0.0,0.0,87,0.00,,CLR,0.00,VWS V14.01,2013-08-19 03:37:00,
2013-08-18 22:38:00,68.0,64.3,30.05,East,93,0.0,0.0,88,0.00,,CLR,0.00,VWS V14.01,2013-08-19 03:38:00,
2013-08-18 22:42:00,67.8,64.1,30.05,East,93,0.0,0.0,88,0.00,,CLR,0.00,VWS V14.01,2013-08-19 03:42:00,
2013-08-18 22:43:00,67.8,64.1,30.05,East,93,0.0,0.0,88,0.00,,CLR,0.00,VWS V14.01,2013-08-19 03:43:00,
2013-08-18 22:48:00,67.7,64.0,30.05,East,93,0.0,0.0,88,0.00,,CLR,0.00,VWS V14.01,2013-08-19 03:48:00,
2013-08-18 22:49:00,67.7,64.0,30.05,East,93,0.0,0.0,88,0.00,,CLR,0.00,VWS V14.01,2013-08-19 03:49:00,
2013-08-18 22:53:00,67.5,63.8,30.05,East,93,0.0,0.0,88,0.00,,CLR,0.00,VWS V14.01,2013-08-19 03:53:00,
2013-08-18 22:54:00,67.5,63.8,30.05,East,93,0.0,0.0,88,0.00,,CLR,0.00,VWS V14.01,2013-08-19 03:54:00,
2013-08-18 22:58:00,67.3,64.0,30.05,East,93,0.0,0.0,89,0.00,,CLR,0.00,VWS V14.01,2013-08-19 03:58:00,
2013-08-18 22:59:00,67.3,64.0,30.05,East,93,0.0,0.0,89,0.00,,CLR,0.00,VWS V14.01,2013-08-19 03:59:00,
2013-08-18 23:00:00,67.2,63.8,30.05,East,93,0.0,0.0,89,0.00,,,0.00,VWS V14.01,2013-08-19 04:00:00,
2013-08-18 23:01:00,67.2,63.8,30.05,East,93,0.0,0.0,89,0.00,,CLR,0.00,VWS V14.01,2013-08-19 04:01:00,
2013-08-18 23:06:00,67.2,63.8,30.05,East,93,0.0,0.0,89,0.00,,CLR,0.00,VWS V14.01,2013-08-19 04:06:00,
2013-08-18 23:11:00,67.2,64.2,30.05,East,93,0.0,0.0,90,0.00,,CLR,0.00,VWS V14.01,2013-08-19 04:11:00,
2013-08-18 23:16:00,67.0,64.0,30.05,East,93,0.0,0.0,90,0.00,,CLR,0.00,VWS V14.01,2013-08-19 04:16:00,
2013-08-18 23:21:00,67.0,64.0,30.05,East,93,0.0,0.0,90,0.00,,CLR,0.00,VWS V14.01,2013-08-19 04:21:00,
2013-08-18 23:22:00,67.0,64.0,30.05,East,93,0.0,0.0,90,0.00,,CLR,0.00,VWS V14.01,2013-08-19 04:22:00,
2013-08-18 23:26:00,67.0,64.0,30.05,East,93,0.0,0.0,90,0.00,,CLR,0.00,VWS V14.01,2013-08-19 04:26:00,
2013-08-18 23:27:00,67.0,64.0,30.05,East,93,0.0,0.0,90,0.00,,CLR,0.00,VWS V14.01,2013-08-19 04:27:00,
2013-08-18 23:30:00,66.8,63.8,30.05,East,93,0.0,0.0,90,0.00,,,0.00,VWS V14.01,2013-08-19 04:30:00,
2013-08-18 23:31:00,66.8,63.8,30.05,East,93,0.0,0.0,90,0.00,,CLR,0.00,VWS V14.01,2013-08-19 04:31:00,
2013-08-18 23:32:00,66.8,63.8,30.05,East,93,0.0,0.0,90,0.00,,CLR,0.00,VWS V14.01,2013-08-19 04:32:00,
2013-08-18 23:36:00,66.8,64.1,30.05,East,93,0.0,0.0,91,0.00,,CLR,0.00,VWS V14.01,2013-08-19 04:36:00,
2013-08-18 23:37:00,66.8,64.1,30.05,East,93,0.0,0.0,91,0.00,,CLR,0.00,VWS V14.01,2013-08-19 04:37:00,
2013-08-18 23:41:00,66.7,64.0,30.05,East,93,0.0,0.0,91,0.00,,CLR,0.00,VWS V14.01,2013-08-19 04:41:00,
2013-08-18 23:42:00,66.7,64.0,30.05,East,93,0.0,0.0,91,0.00,,CLR,0.00,VWS V14.01,2013-08-19 04:42:00,
2013-08-18 23:46:00,66.7,64.0,30.05,East,93,0.0,0.0,91,0.00,,CLR,0.00,VWS V14.01,2013-08-19 04:46:00,
2013-08-18 23:47:00,66.7,64.0,30.05,East,93,0.0,0.0,91,0.00,,CLR,0.00,VWS V14.01,2013-08-19 04:47:00,
2013-08-18 23:48:00,66.5,63.8,30.05,East,93,0.0,0.0,91,0.00,,CLR,0.00,VWS V14.01,2013-08-19 04:48:00,
2013-08-18 23:51:00,66.5,63.8,30.05,East,93,0.0,0.0,91,0.00,,CLR,0.00,VWS V14.01,2013-08-19 04:51:00,
2013-08-18 23:52:00,66.5,63.8,30.05,East,93,0.0,0.0,91,0.00,,CLR,0.00,VWS V14.01,2013-08-19 04:52:00,
2013-08-18 23:53:00,66.3,63.6,30.05,East,93,0.0,0.0,91,0.00,,CLR,0.00,VWS V14.01,2013-08-19 04:53:00,
2013-08-18 23:57:00,66.5,63.8,30.05,East,93,0.0,0.0,91,0.00,,CLR,0.00,VWS V14.01,2013-08-19 04:57:00,
2013-08-18 23:58:00,66.5,63.8,30.05,East,93,0.0,0.0,91,0.00,,CLR,0.00,VWS V14.01,2013-08-19 04:58:00,